Home   Weather   Riverside   Past weeks

Flag for USA Past Weather in Riverside, California, USA — Yesterday and Last 2 Weeks

Now
84 °F

Sunny.


Feels Like: 85 °F
Forecast: 67 / 93 °F
Wind: 7 mph from West

Location: Riverside Municipal Airport

Current Time: Jul 20, 2017 at 11:49:24 am

Latest Report: Jul 20, 2017 at 10:53 am


Visibility: 10 mi

Pressure: 29.97 "Hg

Humidity: 49%

Dew Point: 63 °F

Location of RiversideLocation

Past Weather in Riverside — Graph

°F

Riverside Temperature Yesterday

Maximum temperature yesterday: 93 °F (at 3:53 pm)
Minimum temperature yesterday: 70 °F (at 2:53 am)
Average temperature yesterday: 79 °F

High & Low Weather Summary for the Past Weeks

 TemperatureHumidityPressure
High107 °F (Jul 7, 1:53 pm)90% (Jul 12, 5:53 am)29.98 "Hg (Jul 12, 5:53 am)
Low66 °F (Jul 13, 4:53 am)17% (Jul 5, 12:53 pm)29.74 "Hg (Jul 8, 6:53 pm)
Average82 °F51%29.87 "Hg
* Reported Jul 5 9:53 am — Jul 20 9:53 am, Riverside. Weather by CustomWeather, © 2017

Note: Actual official high and low records may vary slightly from our data, if they occured in-between our weather recording intervals... More about our weather records

Advertising

Riverside Weather History for the Previous 24 Hours

Scroll right to see more
 ConditionsComfort  
Time TempWeatherWind HumidityBarometerVisibility
9:53 am
Thu, Jul 20
80 °FSunny.3 mph56%29.97 "Hg10 mi
8:53 am75 °FSunny.No wind71%29.98 "Hg10 mi
7:53 am72 °FSunny.3 mph78%29.97 "Hg10 mi
6:53 am70 °FSunny.No wind81%29.96 "Hg10 mi
5:53 am68 °FSunny.No wind84%29.95 "Hg10 mi
4:53 am70 °FClear.No wind81%29.93 "Hg10 mi
3:53 am69 °FClear.3 mph81%29.93 "Hg10 mi
2:53 am71 °FClear.No wind73%29.93 "Hg10 mi
1:53 am70 °FClear.5 mph73%29.93 "Hg10 mi
12:53 am71 °FClear.5 mph73%29.94 "Hg10 mi
11:53 pm
Wed, Jul 19
72 °FClear.5 mph71%29.94 "Hg10 mi
10:53 pm74 °FClear.3 mph67%29.94 "Hg10 mi
9:53 pm76 °FClear.3 mph62%29.93 "Hg10 mi
8:53 pm77 °FClear.8 mph62%29.91 "Hg10 mi
7:53 pm80 °FSunny.12 mph56%29.88 "Hg10 mi
6:53 pm85 °FSunny.13 mph46%29.86 "Hg10 mi
5:53 pm87 °FSunny.10 mph42%29.85 "Hg10 mi
4:53 pm92 °FSunny.13 mph36%29.85 "Hg10 mi
3:53 pm93 °FSunny.8 mph36%29.86 "Hg10 mi
2:53 pm92 °FSunny.N/A35%29.89 "Hg10 mi
1:53 pm90 °FPartly sunny.7 mph37%29.91 "Hg10 mi
12:53 pm88 °FSunny.6 mph40%29.93 "Hg10 mi
11:53 am86 °FSunny.5 mph42%29.94 "Hg10 mi
Weather by CustomWeather, © 2017

See weather overviewHow to use our weather pages